User: anonymous   Login
Location: Hohe Wand Kleine Kanzel
(47.8330°N, 16.0170°E)
Time: 13:49:37
(UTC+02:00)
Language:

NOAA 19 - Orbit

View from above orbital plane
View from above orbital plane
View from above satellite
View from above satellite

Ground track
Ground track

The orbit data is extracted from the following two-line orbital elements,

1 33591U 09005A   21267.15484858  .00000043  00000-0  48606-4 0  9991
2 33591  99.1795 290.2866 0013418 212.2786 147.7565 14.12496672650852
Epoch (UTC): 24 September 2021 03:42:58
Eccentricity: 0.0013418
inclination: 99.1795°
perigee height: 841 km
apogee height: 860 km
right ascension of ascending node: 290.2866°
argument of perigee: 212.2786°
revolutions per day: 14.12496672
mean anomaly at epoch: 147.7565°
orbit number at epoch: 65085

The dashed part of the orbit path shows where the satellite is in the earth's shadow,  

DLR